Voltar ao catálogo

STARLINK-34327

AtivoComunicaçõesVLEO
NORAD 64208·PAYLOAD·🇺🇸 United States

Lançado May 31, 2025 de Vandenberg Space Force Base

Loading…

Próximas Passagens (próximas 24 horas)

TLE

AtualizadoSource: CelesTrak SupGP

Época: Sep 15, 2026, 02:42 UTC

1 64208C 25117F   26258.11298611 -.00041783  00000+0 -12343-2 0  2585
2 64208  53.1582 238.7863 0001389  93.9124 167.5545 15.34415009    18

Acompanhe STARLINK-34327 em tempo real com AllMySat

Download on the App Store